Location: Ehrke Reservoir
(40.0279°N, 99.6641°W)
Time: 21:39:04
(UTC+00:00)

Cosmos 2237 Rocket - Pass Details

Date: 20 January 2020
Orbit: 836 x 848 km, 71.0° (Epoch: 25 February)

Event Time Altitude Azimuth Distance (km) Brightness Sun altitude
Rises 01:00:25 0° 340° (NNW) 3,395 5.4 -14.9°
Reaches altitude 10° 01:02:55 10° 345° (NNW) 2,457 4.6 -15.4°
Maximum altitude 01:08:28 57° 63° (ENE) 983 2.2 -16.4°
Drops below altitude 10° 01:13:58 10° 142° (SE) 2,443 4.4 -17.4°
Sets 01:16:27 0° 147° (SSE) 3,374 5.1 -17.9°
